Tracking 18843 objects as of 20-November-2017
HD Live streaming from Space Station
objects crossing your sky now

FENGYUN 1C DEB

Track FENGYUN 1C DEB now!
10-day predictions


NORAD ID: 30171
Int'l Code: 1999-025UC
Perigee: 780.8 km
Apogee: 1,056.1 km
Inclination: 98.5 °
Period: 103.2 minutes
Semi major axis: 7289 km
RCS: 0.0528 m2 (small)
Launch date: May 10, 1999
Source: People's Republic of China (PRC)
Launch site: Taiyaun Space Center, China (TSC)

Note: This is SATELLITE DEBRIS
aabbcc
Your satellite tracking list
Your tracking list is empty




NASA's NSSDC Master Catalog

Two Line Element Set (TLE):
1 30171U 99025UC  17324.17138199  .00000246  00000-0  18293-3 0  9991
2 30171  98.4550  28.2406 0188857 203.5997 155.6418 13.94956588552133
Source of the keplerian elements: AFSPC